TimeEST,TemperatureF,Dew PointF,Humidity,Sea Level PressureIn,VisibilityMPH,Wind Direction,Wind SpeedMPH,Gust SpeedMPH,PrecipitationIn,Events,Conditions,WindDirDegrees,DateUTC
12:15 AM,34.0,27.0,75,30.38,10.0,SE,3.5,-,N/A,,Clear,130,2012-11-14 05:15:00
12:35 AM,32.4,27.9,83,30.38,10.0,Calm,Calm,-,N/A,,Clear,0,2012-11-14 05:35:00
12:55 AM,33.4,27.1,78,30.37,10.0,ENE,3.5,-,N/A,,Clear,70,2012-11-14 05:55:00
1:15 AM,34.7,26.8,73,30.37,10.0,ENE,5.8,-,N/A,,Clear,60,2012-11-14 06:15:00
1:55 AM,34.9,26.6,72,30.37,10.0,ENE,4.6,-,N/A,,Clear,60,2012-11-14 06:55:00
2:15 AM,34.3,26.6,73,30.37,10.0,ENE,5.8,-,N/A,,Clear,60,2012-11-14 07:15:00
2:35 AM,34.5,26.6,73,30.37,10.0,ENE,6.9,-,N/A,,Clear,60,2012-11-14 07:35:00
2:55 AM,34.7,26.6,72,30.36,10.0,ENE,8.1,-,N/A,,Clear,70,2012-11-14 07:55:00
3:15 AM,34.3,26.6,73,30.36,10.0,East,6.9,-,N/A,,Clear,80,2012-11-14 08:15:00
3:35 AM,32.4,26.6,79,30.36,10.0,East,8.1,-,N/A,,Clear,90,2012-11-14 08:35:00
3:55 AM,31.8,26.6,81,30.36,10.0,East,8.1,-,N/A,,Clear,90,2012-11-14 08:55:00
4:15 AM,31.5,26.4,82,30.35,10.0,East,8.1,-,N/A,,Clear,100,2012-11-14 09:15:00
4:35 AM,31.6,26.6,82,30.35,10.0,East,8.1,-,N/A,,Clear,100,2012-11-14 09:35:00
4:55 AM,31.1,26.6,83,30.35,10.0,East,8.1,-,N/A,,Clear,90,2012-11-14 09:55:00
5:15 AM,31.1,26.2,82,30.36,10.0,ESE,6.9,-,N/A,,Clear,110,2012-11-14 10:15:00
5:35 AM,31.1,26.1,82,30.36,10.0,East,4.6,-,N/A,,Clear,90,2012-11-14 10:35:00
5:55 AM,31.6,25.5,78,30.36,10.0,East,5.8,-,N/A,,Clear,90,2012-11-14 10:55:00
6:15 AM,31.6,25.7,79,30.36,10.0,East,5.8,-,N/A,,Clear,80,2012-11-14 11:15:00
6:35 AM,31.5,25.5,79,30.37,10.0,East,4.6,-,N/A,,Clear,90,2012-11-14 11:35:00
6:55 AM,29.8,25.5,84,30.37,10.0,East,5.8,-,N/A,,Clear,90,2012-11-14 11:55:00
7:15 AM,32.0,25.7,78,30.38,10.0,ENE,4.6,-,N/A,,Clear,60,2012-11-14 12:15:00
7:35 AM,30.2,25.7,83,30.39,10.0,East,6.9,-,N/A,,Clear,90,2012-11-14 12:35:00
7:55 AM,32.7,27.7,82,30.39,10.0,East,6.9,-,N/A,,Clear,90,2012-11-14 12:55:00
8:15 AM,34.7,28.0,77,30.39,10.0,East,10.4,-,N/A,,Clear,90,2012-11-14 13:15:00
8:35 AM,36.3,29.3,76,30.39,10.0,East,12.7,-,N/A,,Clear,90,2012-11-14 13:35:00
8:55 AM,37.4,29.1,72,30.40,10.0,East,18.4,23.0,N/A,,Clear,100,2012-11-14 13:55:00
9:15 AM,37.8,30.2,74,30.40,10.0,East,15.0,-,N/A,,Clear,90,2012-11-14 14:15:00
9:35 AM,38.8,30.4,72,30.40,10.0,East,16.1,-,N/A,,Clear,90,2012-11-14 14:35:00
9:55 AM,39.7,30.4,69,30.40,10.0,East,13.8,-,N/A,,Clear,100,2012-11-14 14:55:00
10:15 AM,40.5,30.0,66,30.39,10.0,East,16.1,-,N/A,,Clear,90,2012-11-14 15:15:00
10:55 AM,42.8,30.2,61,30.39,10.0,East,12.7,-,N/A,,Clear,90,2012-11-14 15:55:00
11:15 AM,44.2,31.5,61,30.39,10.0,East,11.5,-,N/A,,Clear,90,2012-11-14 16:15:00
11:35 AM,44.6,31.1,59,30.38,10.0,ESE,9.2,-,N/A,,Clear,110,2012-11-14 16:35:00
11:55 AM,45.1,31.1,58,30.36,10.0,East,9.2,-,N/A,,Clear,100,2012-11-14 16:55:00
12:15 PM,46.6,31.8,56,30.36,10.0,ENE,8.1,-,N/A,,Clear,70,2012-11-14 17:15:00
12:35 PM,46.9,31.1,54,30.35,10.0,ENE,4.6,-,N/A,,Clear,60,2012-11-14 17:35:00
12:55 PM,48.0,31.6,53,30.34,10.0,East,8.1,-,N/A,,Clear,90,2012-11-14 17:55:00
1:15 PM,48.9,31.8,52,30.33,10.0,East,4.6,-,N/A,,Clear,80,2012-11-14 18:15:00
1:35 PM,49.1,32.0,52,30.32,10.0,East,6.9,-,N/A,,Clear,90,2012-11-14 18:35:00
1:55 PM,50.9,33.3,51,30.31,10.0,East,5.8,-,N/A,,Clear,90,2012-11-14 18:55:00
2:15 PM,50.4,32.0,49,30.30,10.0,East,6.9,-,N/A,,Clear,100,2012-11-14 19:15:00
2:35 PM,52.2,32.7,48,30.30,10.0,ESE,8.1,-,N/A,,Clear,110,2012-11-14 19:35:00
2:55 PM,51.6,32.4,48,30.30,10.0,East,3.5,-,N/A,,Clear,90,2012-11-14 19:55:00
3:15 PM,50.9,32.4,49,30.29,10.0,East,6.9,-,N/A,,Clear,100,2012-11-14 20:15:00
3:55 PM,51.1,33.1,50,30.30,10.0,East,4.6,-,N/A,,Clear,80,2012-11-14 20:55:00
4:15 PM,50.5,33.4,52,30.30,10.0,ENE,5.8,-,N/A,,Clear,60,2012-11-14 21:15:00
4:35 PM,50.0,32.9,52,30.30,10.0,East,4.6,-,N/A,,Clear,90,2012-11-14 21:35:00
4:55 PM,49.1,32.2,52,30.30,10.0,East,4.6,-,N/A,,Clear,80,2012-11-14 21:55:00
5:15 PM,47.5,32.7,57,30.30,10.0,East,5.8,-,N/A,,Clear,100,2012-11-14 22:15:00
5:35 PM,46.8,33.3,59,30.29,10.0,East,5.8,-,N/A,,Clear,100,2012-11-14 22:35:00
5:55 PM,46.8,32.9,59,30.29,10.0,East,3.5,-,N/A,,Clear,80,2012-11-14 22:55:00
6:15 PM,46.2,32.4,58,30.30,10.0,East,4.6,-,N/A,,Clear,90,2012-11-14 23:15:00
6:35 PM,45.7,32.0,59,30.31,10.0,East,4.6,-,N/A,,Clear,80,2012-11-14 23:35:00
6:55 PM,44.8,32.9,63,30.31,10.0,East,5.8,-,N/A,,Clear,100,2012-11-14 23:55:00
7:15 PM,44.2,32.2,63,30.30,10.0,East,4.6,-,N/A,,Clear,90,2012-11-15 00:15:00
7:35 PM,44.2,32.2,63,30.31,10.0,ENE,3.5,-,N/A,,Clear,70,2012-11-15 00:35:00
7:55 PM,44.1,32.2,63,30.31,10.0,ENE,3.5,-,N/A,,Clear,70,2012-11-15 00:55:00
8:15 PM,43.5,32.2,64,30.32,10.0,East,5.8,-,N/A,,Clear,80,2012-11-15 01:15:00
8:35 PM,42.8,32.2,66,30.32,10.0,East,5.8,-,N/A,,Clear,80,2012-11-15 01:35:00
8:55 PM,42.1,32.5,69,30.33,10.0,East,6.9,-,N/A,,Clear,100,2012-11-15 01:55:00
9:15 PM,42.3,32.4,68,30.33,10.0,East,9.2,-,N/A,,Clear,100,2012-11-15 02:15:00
9:35 PM,42.4,32.2,67,30.32,10.0,East,12.7,-,N/A,,Clear,100,2012-11-15 02:35:00
9:55 PM,42.3,32.0,67,30.30,10.0,East,13.8,-,N/A,,Clear,90,2012-11-15 02:55:00
10:15 PM,42.1,32.0,67,30.31,10.0,East,9.2,-,N/A,,Clear,90,2012-11-15 03:15:00
10:35 PM,41.9,31.6,67,30.30,10.0,East,6.9,-,N/A,,Clear,90,2012-11-15 03:35:00
10:55 PM,41.4,31.3,67,30.30,10.0,East,4.6,-,N/A,,Clear,100,2012-11-15 03:55:00
11:15 PM,40.3,31.1,70,30.29,10.0,East,5.8,-,N/A,,Clear,80,2012-11-15 04:15:00
11:35 PM,39.2,30.9,72,30.28,10.0,East,8.1,-,N/A,,Clear,90,2012-11-15 04:35:00
11:55 PM,39.0,30.7,72,30.28,10.0,ENE,5.8,-,N/A,,Clear,70,2012-11-15 04:55:00